EW7004 Weather Reports


Display with metric or nautical units.
time (UTC)temp
F
wind
direction
speed
MPH
gust
MPH
rain 1hr
in
rain 24hr
in
rain mn
in
humidity
%
barometer
mb
20260904235403 86 217 7.0 14.0 0.00 0.00 0.00 24 1029.2
20260904234904 87 212 10.0 15.0 0.00 0.00 0.00 23 1029.1
20260904234404 87 212 10.0 16.0 0.00 0.00 0.00 22 1029.1
20260904233903 87 211 10.0 16.0 0.00 0.00 0.00 22 1029.1
20260904233403 87 193 7.0 12.0 0.00 0.00 0.00 23 1029.2
20260904232903 87 192 7.0 13.0 0.00 0.00 0.00 23 1029.2
20260904232404 87 196 10.0 16.0 0.00 0.00 0.00 22 1029.2
20260904231903 88 224 9.0 16.0 0.00 0.00 0.00 22 1029.2
20260904230903 88 236 9.0 14.0 0.00 0.00 0.00 23 1029.2
20260904230404 88 207 9.0 14.0 0.00 0.00 0.00 22 1029.2
20260904225903 88 200 6.0 12.0 0.00 0.00 0.00 22 1029.3
20260904224904 88 210 7.0 12.0 0.00 0.00 0.00 23 1029.3
20260904224403 88 191 6.0 12.0 0.00 0.00 0.00 23 1029.3
20260904223904 88 194 7.0 16.0 0.00 0.00 0.00 24 1029.4
20260904223403 88 210 6.0 12.0 0.00 0.00 0.00 22 1029.4
20260904222903 88 195 6.0 12.0 0.00 0.00 0.00 22 1029.5
20260904222403 88 203 4.0 12.0 0.00 0.00 0.00 22 1029.5
20260904221903 88 224 7.0 12.0 0.00 0.00 0.00 21 1029.5
20260904220903 88 185 5.0 9.0 0.00 0.00 0.00 22 1029.6
20260904220404 88 201 7.0 12.0 0.00 0.00 0.00 22 1029.6
20260904215904 88 185 5.0 14.0 0.00 0.00 0.00 22 1029.7
20260904215403 88 211 5.0 12.0 0.00 0.00 0.00 21 1029.8
20260904214903 88 217 7.0 13.0 0.00 0.00 0.00 21 1029.8
20260904214403 88 231 6.0 10.0 0.00 0.00 0.00 21 1029.8
20260904213904 87 235 7.0 12.0 0.00 0.00 0.00 21 1029.8
20260904213403 87 226 7.0 13.0 0.00 0.00 0.00 20 1029.9
20260904212904 87 200 6.0 12.0 0.00 0.00 0.00 20 1029.9
20260904212403 87 269 4.0 7.0 0.00 0.00 0.00 19 1029.9
20260904211404 87 220 5.0 9.0 0.00 0.00 0.00 21 1030.0
20260904210904 86 212 2.0 8.0 0.00 0.00 0.00 23 1029.9
20260904210403 86 183 5.0 10.0 0.00 0.00 0.00 23 1029.9
20260904205903 86 279 4.0 10.0 0.00 0.00 0.00 22 1030.0
20260904205403 86 223 7.0 12.0 0.00 0.00 0.00 23 1030.0
20260904204904 86 178 3.0 12.0 0.00 0.00 0.00 24 1030.0
20260904204404 85 261 2.0 3.0 0.00 0.00 0.00 25 1030.1
20260904203903 85 315 4.0 12.0 0.00 0.00 0.00 24 1030.1
20260904203403 85 270 6.0 10.0 0.00 0.00 0.00 24 1030.1
20260904201403 85 193 3.0 8.0 0.00 0.00 0.00 29 1030.3
20260904200903 84 156 2.0 8.0 0.00 0.00 0.00 29 1030.3
20260904200403 84 214 5.0 12.0 0.00 0.00 0.00 25 1030.3
20260904195904 84 222 2.0 12.0 0.00 0.00 0.00 27 1030.3
20260904195403 83 245 5.0 9.0 0.00 0.00 0.00 27 1030.4
20260904194903 83 125 1.0 6.0 0.00 0.00 0.00 29 1030.5
20260904194404 83 261 4.0 10.0 0.00 0.00 0.00 29 1030.5
20260904193904 82 219 0.0 7.0 0.00 0.00 0.00 32 1030.6
20260904193404 82 240 3.0 7.0 0.00 0.00 0.00 32 1030.7
20260904192904 81 190 5.0 8.0 0.00 0.00 0.00 32 1030.8
20260904192405 81 255 5.0 8.0 0.00 0.00 0.00 33 1030.8
20260904191904 81 198 4.0 7.0 0.00 0.00 0.00 33 1030.9
20260904191403 81 129 2.0 6.0 0.00 0.00 0.00 33 1031.0
20260904190903 81 230 5.0 9.0 0.00 0.00 0.00 33 1031.1
20260904190404 80 159 2.0 9.0 0.00 0.00 0.00 35 1031.2
20260904185903 80 215 4.0 8.0 0.00 0.00 0.00 34 1031.3
20260904185404 80 223 1.0 8.0 0.00 0.00 0.00 35 1031.4
20260904184903 80 185 2.0 7.0 0.00 0.00 0.00 36 1031.3
20260904184403 79 149 1.0 5.0 0.00 0.00 0.00 38 1031.4
20260904183903 79 187 4.0 8.0 0.00 0.00 0.00 39 1031.4
20260904183404 78 238 5.0 9.0 0.00 0.00 0.00 40 1031.4
20260904182904 77 261 2.0 3.0 0.00 0.00 0.00 42 1031.4
20260904182403 77 149 3.0 6.0 0.00 0.00 0.00 44 1031.5
20260904181904 76 165 2.0 5.0 0.00 0.00 0.00 47 1031.4
20260904181403 75 296 1.0 3.0 0.00 0.00 0.00 48 1031.5
20260904180904 75 241 4.0 8.0 0.00 0.00 0.00 50 1031.5
20260904180403 75 302 3.0 5.0 0.00 0.00 0.00 51 1031.5
20260904175904 75 248 3.0 6.0 0.00 0.00 0.00 51 1031.6
20260904175403 74 147 1.0 3.0 0.00 0.00 0.00 52 1031.7
20260904174904 74 284 2.0 7.0 0.00 0.00 0.00 54 1031.7
20260904174403 73 220 2.0 7.0 0.00 0.00 0.00 55 1031.7
20260904173904 73 194 2.0 5.0 0.00 0.00 0.00 56 1031.7
20260904173404 72 219 4.0 6.0 0.00 0.00 0.00 56 1031.6
20260904172404 71 189 1.0 3.0 0.00 0.00 0.00 58 1031.6
20260904171904 71 252 0.0 2.0 0.00 0.00 0.00 57 1031.6
20260904171404 70 264 3.0 6.0 0.00 0.00 0.00 60 1031.6
20260904170904 70 289 1.0 3.0 0.00 0.00 0.00 60 1031.5
20260904165904 70 269 2.0 3.0 0.00 0.00 0.00 61 1031.5
20260904165403 69 172 2.0 3.0 0.00 0.00 0.00 64 1031.5
20260904164403 68 270 1.0 3.0 0.00 0.00 0.00 69 1031.4
20260904163904 68 225 0.0 5.0 0.00 0.00 0.00 71 1031.3
20260904163403 67 234 1.0 3.0 0.00 0.00 0.00 72 1031.3
20260904162903 67 20 2.0 3.0 0.00 0.00 0.00 73 1031.3
20260904162403 67 338 0.0 2.0 0.00 0.00 0.00 75 1031.2
20260904161903 66 322 0.0 1.0 0.00 0.00 0.00 76 1031.1
20260904161403 65 288 1.0 3.0 0.00 0.00 0.00 77 1031.1
20260904160903 65 277 0.0 3.0 0.00 0.00 0.00 78 1031.2
20260904160403 65 331 0.0 0.0 0.00 0.00 0.00 80 1031.2
20260904155904 64 331 0.0 0.0 0.00 0.00 0.00 81 1031.1
20260904155403 64 201 0.0 0.0 0.00 0.00 0.00 83 1031.1
20260904154903 63 195 0.0 0.0 0.00 0.00 0.00 84 1031.2
20260904154403 63 195 0.0 0.0 0.00 0.00 0.00 86 1031.1
20260904153904 62 195 0.0 0.0 0.00 0.00 0.00 86 1031.2
20260904152404 61 227 0.0 0.0 0.00 0.00 0.00 88 1031.1
20260904151903 61 244 1.0 3.0 0.00 0.00 0.00 87 1031.1
20260904150903 60 225 2.0 3.0 0.00 0.00 0.00 87 1031.1
20260904150404 60 225 1.0 3.0 0.00 0.00 0.00 87 1031.2
20260904145903 60 206 1.0 3.0 0.00 0.00 0.00 88 1031.2
20260904145404 60 149 0.0 2.0 0.00 0.00 0.00 87 1031.3
20260904144403 60 159 0.0 0.0 0.00 0.00 0.00 86 1031.2
20260904143903 60 194 0.0 0.0 0.00 0.00 0.00 86 1031.2
20260904142903 59 194 0.0 1.0 0.00 0.00 0.00 86 1031.1
20260904142403 59 194 1.0 3.0 0.00 0.00 0.00 85 1031.1
20260904140403 58 105 0.0 0.0 0.00 0.00 0.00 79 1030.9
20260904135903 58 105 0.0 0.0 0.00 0.00 0.00 78 1030.8
20260904135403 59 105 0.0 0.0 0.00 0.00 0.00 80 1030.7
20260904134904 59 105 0.0 0.0 0.00 0.00 0.00 81 1030.8
20260904134403 58 105 0.0 1.0 0.00 0.00 0.00 79 1030.8
20260904133903 58 105 0.0 2.0 0.00 0.00 0.00 77 1030.7
20260904132903 58 105 0.0 0.0 0.00 0.00 0.00 74 1030.8
20260904131904 58 105 0.0 0.0 0.00 0.00 0.00 72 1030.7
20260904131404 58 105 0.0 0.0 0.00 0.00 0.00 72 1030.7
20260904130903 58 105 0.0 0.0 0.00 0.00 0.00 72 1030.6
20260904130403 58 105 1.0 3.0 0.00 0.00 0.00 71 1030.4
20260904125903 58 105 1.0 3.0 0.00 0.00 0.00 72 1030.5
20260904125404 58 105 0.0 0.0 0.00 0.00 0.00 72 1030.5
20260904124903 58 105 1.0 3.0 0.00 0.00 0.00 72 1030.5
20260904124403 58 105 1.0 3.0 0.00 0.00 0.00 72 1030.4
20260904123903 58 105 0.0 0.0 0.00 0.00 0.00 72 1030.2
20260904123403 59 105 0.0 0.0 0.00 0.00 0.00 72 1030.1
20260904122903 59 105 0.0 0.0 0.00 0.00 0.00 73 1030.1
20260904122403 59 105 0.0 0.0 0.00 0.00 0.00 73 1030.1
20260904121903 59 105 0.0 0.0 0.00 0.00 0.00 73 1030.1
20260904121403 59 105 0.0 0.0 0.00 0.00 0.00 73 1030.1
20260904120904 59 105 0.0 0.0 0.00 0.00 0.00 73 1030.1
20260904120403 59 105 0.0 1.0 0.00 0.00 0.00 73 1030.1
20260904115403 59 105 2.0 3.0 0.00 0.00 0.00 74 1030.2
20260904114904 59 105 1.0 2.0 0.00 0.00 0.00 74 1030.2
20260904114403 59 105 1.0 2.0 0.00 0.00 0.00 74 1030.2
20260904113904 59 105 1.0 2.0 0.00 0.00 0.00 75 1030.2
20260904113404 59 105 1.0 2.0 0.00 0.00 0.00 75 1030.1
20260904112903 59 304 0.0 2.0 0.00 0.00 0.00 76 1030.1
20260904112403 59 302 0.0 0.0 0.00 0.00 0.00 75 1030.1
20260904111403 59 302 0.0 0.0 0.00 0.00 0.00 76 1030.0
20260904110404 60 302 0.0 0.0 0.00 0.00 0.00 78 1030.0
20260904105403 60 302 0.0 0.0 0.00 0.00 0.00 81 1030.0
20260904104904 61 302 0.0 0.0 0.00 0.00 0.00 81 1030.0
20260904103904 61 302 0.0 0.0 0.00 0.00 0.00 81 1029.9
20260904103403 61 302 0.0 0.0 0.00 0.00 0.00 81 1029.9
20260904101903 61 302 0.0 0.0 0.00 0.00 0.00 81 1029.9
20260904101403 60 302 0.0 0.0 0.00 0.00 0.00 80 1029.8
20260904100904 60 302 0.0 0.0 0.00 0.00 0.00 79 1029.9
20260904100403 61 302 0.0 0.0 0.00 0.00 0.00 78 1029.9
20260904095903 61 302 0.0 0.0 0.00 0.00 0.00 78 1029.9
20260904095404 61 302 0.0 0.0 0.00 0.00 0.00 78 1029.9
20260904094903 61 302 0.0 0.0 0.00 0.00 0.00 78 1029.9
20260904094403 61 302 0.0 0.0 0.00 0.00 0.00 78 1029.9
20260904093904 62 302 0.0 0.0 0.00 0.00 0.00 78 1029.9
20260904093403 62 302 0.0 0.0 0.00 0.00 0.00 79 1029.9
20260904092903 62 302 0.0 0.0 0.00 0.00 0.00 79 1029.9
20260904092403 62 302 0.0 0.0 0.00 0.00 0.00 79 1029.8
20260904091903 62 302 0.0 0.0 0.00 0.00 0.00 79 1029.8
20260904091404 62 302 0.0 0.0 0.00 0.00 0.00 79 1029.8
20260904090903 62 302 0.0 0.0 0.00 0.00 0.00 78 1029.7
20260904090403 62 302 0.0 0.0 0.00 0.00 0.00 78 1029.8
20260904085904 62 302 0.0 0.0 0.00 0.00 0.00 78 1029.8
20260904085403 63 302 0.0 0.0 0.00 0.00 0.00 77 1029.9
20260904084903 63 302 0.0 0.0 0.00 0.00 0.00 76 1029.9
20260904084403 63 302 0.0 0.0 0.00 0.00 0.00 76 1029.9
20260904083903 63 302 0.0 0.0 0.00 0.00 0.00 76 1030.0
20260904082904 63 302 1.0 3.0 0.00 0.00 0.00 75 1030.0
20260904082403 63 302 1.0 3.0 0.00 0.00 0.00 74 1030.0
20260904081903 63 302 0.0 0.0 0.00 0.00 0.00 73 1030.1
20260904081404 63 302 0.0 0.0 0.00 0.00 0.00 72 1030.1
20260904080904 63 302 0.0 0.0 0.00 0.00 0.00 73 1030.1
20260904080404 64 302 0.0 0.0 0.00 0.00 0.00 73 1030.1
20260904075904 64 302 0.0 0.0 0.00 0.00 0.00 74 1030.1
20260904075403 64 302 0.0 0.0 0.00 0.00 0.00 74 1030.2
20260904074903 64 302 0.0 0.0 0.00 0.00 0.00 76 1030.2
20260904074403 64 302 0.0 0.0 0.00 0.00 0.00 76 1030.2
20260904073903 64 302 0.0 0.0 0.00 0.00 0.00 75 1030.2
20260904073404 64 302 0.0 0.0 0.00 0.00 0.00 75 1030.3
20260904072904 64 302 0.0 0.0 0.00 0.00 0.00 75 1030.3
20260904071903 64 302 0.0 0.0 0.00 0.00 0.00 75 1030.3
20260904071404 64 302 0.0 0.0 0.00 0.00 0.00 75 1030.2
20260904070904 64 305 0.0 0.0 0.00 0.00 0.00 74 1030.1
20260904070404 64 323 0.0 0.0 0.00 0.00 0.00 74 1030.0
20260904065904 64 323 0.0 0.0 0.00 0.00 0.00 74 1030.0
20260904065404 64 323 0.0 0.0 0.00 0.00 0.00 74 1030.1
20260904064903 64 323 0.0 0.0 0.00 0.00 0.00 73 1030.0
20260904063403 65 323 0.0 1.0 0.00 0.00 0.00 72 1030.1
20260904062903 65 323 0.0 3.0 0.00 0.00 0.00 72 1030.1
20260904062404 65 323 1.0 3.0 0.00 0.00 0.00 71 1030.1
20260904061904 66 274 0.0 2.0 0.00 0.00 0.00 71 1030.1
20260904061404 66 273 1.0 3.0 0.00 0.00 0.00 71 1030.1
20260904060904 66 231 2.0 3.0 0.00 0.00 0.00 70 1030.1
20260904060403 66 223 2.0 3.0 0.00 0.00 0.00 69 1030.2
20260904055404 66 228 3.0 5.0 0.00 0.00 0.00 68 1030.2
20260904054904 67 207 3.0 5.0 0.00 0.00 0.00 66 1030.2
20260904054404 67 236 3.0 3.0 0.00 0.00 0.00 66 1030.2
20260904053404 67 230 0.0 3.0 0.00 0.00 0.00 64 1030.2
20260904052904 67 222 0.0 0.0 0.00 0.00 0.00 63 1030.3
20260904052404 67 222 0.0 2.0 0.00 0.00 0.00 62 1030.3
20260904051903 67 222 1.0 2.0 0.00 0.00 0.00 61 1030.3
20260904051404 68 222 0.0 2.0 0.00 0.00 0.00 61 1030.3
20260904050904 68 222 0.0 0.0 0.00 0.00 0.00 60 1030.3
20260904050404 68 222 2.0 3.0 0.00 0.00 0.00 60 1030.4
20260904045904 68 223 2.0 3.0 0.00 0.00 0.00 59 1030.4
20260904045403 68 227 2.0 3.0 0.00 0.00 0.00 58 1030.3
20260904044902 68 222 2.0 6.0 0.00 0.00 0.00 58 1030.2
20260904044403 69 205 4.0 7.0 0.00 0.00 0.00 57 1030.2
20260904043903 69 207 3.0 8.0 0.00 0.00 0.00 55 1030.2
20260904043403 69 202 5.0 8.0 0.00 0.00 0.00 54 1030.1
20260904042903 69 206 5.0 8.0 0.00 0.00 0.00 52 1030.1
20260904042403 70 203 5.0 7.0 0.00 0.00 0.00 49 1030.1
20260904041903 70 224 6.0 10.0 0.00 0.00 0.00 49 1030.1
20260904041403 70 225 7.0 12.0 0.00 0.00 0.00 49 1030.0
20260904040904 70 223 8.0 10.0 0.00 0.00 0.00 49 1029.9
20260904040403 71 223 5.0 8.0 0.00 0.00 0.00 51 1029.8
20260904035903 71 226 5.0 6.0 0.00 0.00 0.00 54 1029.8
20260904035403 71 219 2.0 7.0 0.00 0.00 0.00 57 1029.8
20260904034903 71 191 2.0 6.0 0.00 0.00 0.00 57 1029.8
20260904033903 72 179 2.0 5.0 0.00 0.00 0.00 54 1029.7
20260904033402 72 216 3.0 5.0 0.00 0.00 0.00 49 1029.7
20260904032903 72 210 2.0 7.0 0.00 0.00 0.00 48 1029.6
20260904032403 72 217 3.0 6.0 0.00 0.00 0.00 46 1029.6
20260904031903 72 223 6.0 8.0 0.00 0.00 0.00 46 1029.5
20260904031403 72 232 3.0 7.0 0.00 0.00 0.00 47 1029.4
20260904030903 73 200 1.0 3.0 0.00 0.00 0.00 47 1029.3
20260904030403 73 176 3.0 6.0 0.00 0.00 0.00 47 1029.2
20260904025404 73 211 5.0 6.0 0.00 0.00 0.00 47 1029.2
20260904024903 73 221 5.0 7.0 0.00 0.00 0.00 46 1029.2
20260904024404 74 220 5.0 8.0 0.00 0.00 0.00 46 1029.1
20260904023903 74 215 5.0 7.0 0.00 0.00 0.00 45 1029.1
20260904023405 74 223 3.0 8.0 0.00 0.00 0.00 44 1029.1
20260904022903 74 207 3.0 6.0 0.00 0.00 0.00 44 1029.0
20260904022404 74 219 3.0 6.0 0.00 0.00 0.00 44 1029.0
20260904021903 75 176 2.0 6.0 0.00 0.00 0.00 43 1029.0
20260904021403 75 185 2.0 7.0 0.00 0.00 0.00 43 1029.0
20260904020904 75 211 5.0 7.0 0.00 0.00 0.00 41 1028.9
20260904020403 76 204 5.0 9.0 0.00 0.00 0.00 40 1028.9
20260904015403 76 194 6.0 8.0 0.00 0.00 0.00 38 1028.9
20260904014904 76 217 7.0 13.0 0.00 0.00 0.00 37 1028.9
20260904014403 77 219 7.0 13.0 0.00 0.00 0.00 41 1028.9
20260904013403 77 212 10.0 16.0 0.00 0.00 0.00 38 1028.8
20260904012904 78 217 12.0 15.0 0.00 0.00 0.00 39 1028.7
20260904012404 78 214 10.0 16.0 0.00 0.00 0.00 36 1028.6
20260904011403 79 195 6.0 12.0 0.00 0.00 0.00 37 1028.6
20260904010903 79 223 9.0 17.0 0.00 0.00 0.00 36 1028.5
20260904010404 80 199 12.0 20.0 0.00 0.00 0.00 36 1028.4
20260904005403 81 219 9.0 14.0 0.00 0.00 0.00 34 1028.3
20260904004903 81 218 9.0 14.0 0.00 0.00 0.00 36 1028.3
20260904004404 81 209 9.0 17.0 0.00 0.00 0.00 36 1028.3
20260904003904 82 225 14.0 20.0 0.00 0.00 0.00 31 1028.3
20260904003403 82 219 7.0 15.0 0.00 0.00 0.00 33 1028.3
20260904002904 82 221 11.0 15.0 0.00 0.00 0.00 31 1028.3
20260904002404 82 185 9.0 20.0 0.00 0.00 0.00 29 1028.2
20260904001904 82 212 9.0 18.0 0.00 0.00 0.00 30 1028.2
20260904001403 83 221 13.0 20.0 0.00 0.00 0.00 29 1028.1
20260904000903 83 219 12.0 17.0 0.00 0.00 0.00 30 1028.2
20260904000404 83 219 11.0 20.0 0.00 0.00 0.00 31 1028.2